Lapse_Rate
5.1 5.3 5.5 5.6 5.4 5.5 5.5 5.7 5.7 5.6 5.5 5.4 5.4 5.6 5.4 5.4 5.7 5.8 5.7 5.7 5.6 5.8 5.8 5.9 6.0 6.0 6.1 6.3 6.4 6.4 6.1 6.1 6.0 6.0 6.0 5.9 5.8 5.9 6.0 6.0 5.9 5.8 5.8
5.2 5.3 5.3 5.5 5.5 5.7 5.4 5.5 5.7 5.5 5.5 5.6 6.0 6.2 6.0 6.0 6.0 5.9 5.8 5.8 5.8 5.9 5.8 5.7 5.7 6.1 6.0 6.1 6.3 6.3 6.4 6.2 6.1 6.0 6.1 6.1 5.9 5.9 6.0 5.9 6.0 5.9 5.9
5.6 5.5 5.6 5.7 5.5 5.7 5.6 5.8 5.5 5.6 5.9 5.7 6.1 6.2 6.2 6.2 6.2 6.2 6.2 6.0 6.0 5.8 6.0 5.9 5.9 5.8 5.9 5.8 5.9 6.1 6.2 6.2 6.1 6.0 6.0 6.1 6.1 6.0 5.9 5.9 5.9 6.0 6.0
5.7 5.6 5.6 5.6 5.7 5.9 5.7 5.7 5.5 5.8 5.9 6.2 6.2 6.0 6.3 6.3 6.3 6.2 6.5 6.5 6.2 6.1 6.0 5.8 5.7 5.9 5.9 5.9 6.0 6.0 6.5 6.5 6.2 6.0 5.9 6.0 6.0 6.1 6.1 6.0 6.0 5.9 6.0
5.7 5.6 5.6 5.6 5.7 5.6 5.8 5.8 5.6 5.9 6.2 6.3 6.3 6.2 6.1 6.3 6.2 5.4 6.3 6.3 6.4 6.1 5.7 6.2 6.2 5.9 5.8 5.9 6.0 6.2 6.2 6.3 6.3 6.1 6.0 5.9 6.0 6.0 6.1 6.1 6.1 6.1 5.9
5.7 5.8 5.6 5.7 5.7 5.9 5.9 5.9 6.0 6.2 6.1 6.3 6.1 6.0 6.6 6.3 6.1 6.3 6.3 6.3 6.1 6.1 5.7 6.1 6.1 6.2 6.1 6.0 5.9 6.0 6.2 6.2 6.1 6.2 6.1 6.0 6.0 6.0 5.9 6.0 6.2 6.1 6.1
6.1 5.9 5.7 6.0 5.9 5.8 6.2 6.1 6.3 6.1 6.1 5.9 5.6 4.7 5.2 6.0 6.0 5.8 5.8 6.0 6.1 6.1 6.1 6.0 6.3 6.1 6.2 6.3 6.2 5.9 5.9 6.1 6.2 6.1 6.1 6.2 6.2 6.1 5.9 5.9 6.0 6.3 6.3
6.2 6.3 6.3 6.3 6.3 5.9 6.4 6.2 6.2 5.9 5.6 5.9 5.7 5.7 5.0 4.9 5.0 5.1 5.5 5.8 5.9 5.7 5.8 5.8 5.7 5.6 6.1 6.3 6.0 6.1 6.1 5.9 5.9 6.1 6.2 6.4 6.3 6.2 6.1 5.9 5.9 5.9 6.2
6.5 6.4 6.3 6.4 6.5 6.4 6.4 6.5 6.4 6.2 5.8 5.6 5.7 5.7 4.9 5.1 4.9 4.8 4.9 5.8 6.0 6.1 5.9 5.7 5.4 5.5 5.4 6.0 6.2 5.9 6.0 6.1 6.0 5.9 6.0 6.1 6.3 6.2 6.3 6.2 6.0 5.9 5.9
6.7 6.6 6.5 6.5 6.5 6.6 6.6 6.6 6.5 6.4 6.1 5.6 5.7 6.0 5.8 5.6 5.4 4.7 4.7 4.6 5.0 5.7 5.7 5.6 5.6 5.6 5.5 5.6 5.7 6.0 5.9 5.9 6.0 6.0 5.9 5.9 6.2 6.2 6.1 6.2 6.2 6.1 5.9
6.6 6.6 6.5 6.4 6.5 6.5 6.4 6.4 6.4 6.3 6.1 5.7 5.7 5.4 5.9 5.9 5.7 5.3 4.4 4.1 4.0 4.0 5.7 5.5 5.5 5.3 5.6 5.3 5.5 5.9 5.9 6.1 6.2 6.2 6.1 6.1 6.0 6.2 6.1 6.1 6.2 6.2 6.0
6.5 6.5 6.4 6.4 6.4 6.4 6.4 6.3 6.3 6.2 6.0 6.0 5.8 5.8 5.4 4.7 4.3 4.2 4.4 4.2 4.0 3.8 4.0 4.6 5.1 5.2 5.2 5.4 5.6 6.0 5.9 5.8 6.2 6.3 6.4 6.4 6.4 6.4 6.4 6.3 6.4 6.5 6.3
6.5 6.6 6.3 6.2 6.2 6.1 6.2 6.2 6.2 6.2 6.0 6.0 5.7 5.8 5.7 5.3 5.1 4.4 4.4 4.0 4.2 4.1 3.7 3.6 3.3 4.7 4.9 4.8 5.1 5.2 5.4 5.6 5.7 5.8 5.8 5.9 6.0 6.0 6.1 6.2 6.4 6.3 6.3
6.4 6.7 6.4 6.2 6.2 6.4 6.2 6.2 6.2 6.1 6.3 5.9 6.0 5.9 5.6 5.5 5.1 4.0 4.1 4.2 4.3 4.2 3.7 3.5 3.4 3.2 3.5 4.5 4.5 4.6 4.6 5.0 5.3 6.0 6.0 6.1 6.0 5.8 5.8 6.0 6.0 6.2 6.3
6.9 6.6 6.5 6.9 7.1 7.2 6.9 6.5 6.1 6.1 6.1 6.1 5.8 5.9 5.7 5.5 5.0 4.3 4.2 4.4 4.2 4.4 4.1 3.8 3.6 3.4 3.2 3.1 3.6 3.9 4.1 4.3 4.8 5.0 5.5 5.7 6.2 6.2 6.0 5.8 6.1 5.9 6.0
7.1 7.2 6.8 7.3 7.3 6.8 6.9 6.5 6.4 6.2 6.1 6.1 5.9 5.8 5.6 5.4 5.4 5.1 4.8 4.3 4.3 5.0 4.3 3.9 3.7 3.5 3.7 4.0 3.4 3.6 4.0 3.9 4.1 4.7 5.0 5.8 5.8 6.0 5.9 5.8 5.9 6.0 6.0
7.2 7.3 7.2 6.9 7.0 6.3 6.0 5.8 6.1 6.0 5.7 6.0 5.8 5.7 5.8 5.8 5.6 5.4 4.5 4.4 4.5 4.7 5.3 5.5 5.0 4.6 4.9 4.5 4.4 4.1 3.8 4.3 4.4 4.6 5.2 5.6 5.7 5.9 6.1 5.7 5.7 5.9 6.0
7.6 7.7 7.1 6.7 6.7 6.7 5.9 5.9 6.5 6.2 6.0 6.3 6.3 6.0 5.9 5.9 5.7 5.7 5.4 5.3 5.0 5.2 5.2 5.7 5.9 5.5 5.1 4.6 4.6 4.5 4.8 4.9 4.3 4.4 5.1 5.8 6.3 6.4 6.4 6.1 5.8 6.0 6.1
7.7 7.9 7.5 7.1 6.6 6.3 6.2 6.0 5.7 5.5 5.5 5.9 6.0 5.9 5.6 5.6 5.5 5.3 5.2 4.9 4.7 4.8 4.8 4.6 4.7 4.4 4.3 4.4 4.3 4.0 4.4 4.2 4.2 4.8 5.5 6.3 6.7 6.7 6.5 6.2 6.2 6.2 6.1
7.7 7.6 7.4 7.1 6.8 6.4 5.9 5.6 5.5 5.0 5.0 5.2 5.6 5.7 5.6 5.4 5.6 5.8 5.6 5.5 5.2 5.2 4.9 4.1 4.1 4.2 5.0 4.6 4.0 4.2 4.5 4.1 4.1 4.8 5.5 5.9 5.7 6.3 6.8 6.8 6.8 6.7 6.6
7.4 7.4 7.4 7.2 6.8 6.4 5.9 5.7 5.6 5.5 5.1 5.1 5.5 5.4 5.5 5.5 5.6 5.5 5.5 5.7 5.8 5.2 5.2 4.6 4.5 4.9 4.2 4.2 4.8 4.5 4.6 4.6 5.2 5.4 6.0 6.2 6.3 6.7 6.6 6.7 7.0 7.2 7.0
7.3 7.3 7.4 7.3 7.4 6.8 6.0 5.6 4.9 4.7 4.9 4.9 5.0 4.9 5.4 5.4 5.4 5.6 5.4 5.4 5.6 5.4 5.2 5.2 5.3 5.1 5.1 5.3 5.3 5.4 5.5 5.7 6.1 6.0 6.0 6.2 6.2 6.5 6.7 6.8 7.2 7.3 7.1
7.9 7.9 7.7 7.5 7.6 7.5 6.6 5.8 5.4 5.1 4.7 4.6 4.7 4.7 5.3 5.3 5.4 5.3 5.5 5.4 5.4 5.2 4.8 5.0 5.5 5.5 5.4 5.5 5.4 5.6 5.8 6.1 6.1 6.2 6.2 6.4 6.4 6.5 6.8 7.1 7.4 7.3 7.0
8.1 7.9 8.1 7.8 7.6 7.0 6.3 5.7 5.4 5.4 5.0 4.7 4.8 4.7 4.9 4.9 5.1 5.0 4.7 5.1 5.3 5.1 5.7 5.7 5.8 6.0 5.8 5.7 5.6 5.6 5.8 6.2 6.5 6.5 6.5 6.7 6.4 6.6 7.0 7.1 7.3 7.2 6.6
7.9 7.8 7.6 7.6 7.5 7.1 6.5 5.9 5.6 5.5 5.0 5.0 4.8 4.8 4.9 5.0 5.0 5.2 5.0 5.3 5.1 5.6 5.7 5.8 6.0 6.0 5.9 5.8 5.3 5.3 5.9 6.4 6.5 6.5 6.8 6.7 6.1 6.3 6.4 6.9 7.1 6.9 6.1
7.7 7.7 7.8 7.2 7.0 6.5 6.4 6.4 6.1 5.7 5.0 4.9 5.0 5.1 5.0 5.0 5.2 5.1 5.3 5.4 5.8 5.8 5.8 5.9 5.7 5.8 6.0 6.1 6.1 6.5 6.7 6.6 6.5 6.7 6.8 6.4 6.4 6.4 6.2 6.3 6.4 6.4 5.5
Wind_Speed
2 2 3 6 4 4 4 4 3 4 5 8 9 7 9 9 8 8 5 11 7 4 4 11 11 13 14 13 14 14 14 13 12 11 11 11 11 10 11 10 9 8 7
5 3 2 5 6 6 9 6 7 5 5 4 5 7 7 7 6 6 8 5 10 9 7 9 12 13 14 14 14 15 15 14 13 13 13 12 11 13 13 12 11 11 10
6 6 4 4 5 1 3 9 8 5 8 6 4 5 7 6 7 6 7 6 7 12 10 10 13 13 15 17 16 16 15 15 15 14 14 13 15 14 14 14 14 14 13
8 8 6 7 5 5 3 4 3 7 6 7 5 4 4 5 7 5 2 5 5 4 14 12 11 14 14 15 17 17 15 14 13 14 13 16 15 15 15 16 16 16 15
11 9 9 3 5 5 3 5 3 5 5 6 6 3 2 4 3 9 4 4 7 4 6 14 12 11 15 14 15 14 15 16 15 15 16 16 17 17 16 16 17 17 16
12 10 9 5 7 3 5 2 4 6 6 6 6 5 4 3 3 5 2 5 5 4 9 6 6 13 12 10 10 12 13 14 14 15 15 17 18 18 18 18 18 18 18
10 7 8 6 4 7 1 5 6 6 4 2 5 5 6 6 6 2 5 5 3 6 6 5 7 7 7 7 9 8 4 7 11 14 12 14 15 16 17 19 19 19 19
12 12 9 5 3 4 0 2 4 5 4 5 6 5 3 5 5 1 4 4 4 6 6 5 5 7 7 6 8 8 9 8 6 5 3 4 4 10 13 16 19 20 20
8 6 5 6 2 2 5 2 2 2 6 2 2 4 3 4 5 5 5 7 2 4 4 4 4 4 3 4 8 8 8 7 6 5 5 5 7 7 7 7 14 17 20
11 9 8 5 2 5 4 2 3 4 3 4 1 4 2 4 6 5 4 7 5 3 4 6 2 3 2 3 6 6 5 5 5 4 3 2 3 4 7 8 9 10 15
6 6 5 4 2 4 4 3 1 3 2 4 2 2 4 3 3 3 5 2 3 4 2 4 4 8 2 5 5 7 2 2 3 3 5 7 8 8 7 8 10 12 12
7 6 8 6 4 2 3 3 2 3 4 4 5 1 5 2 0 2 4 4 4 4 3 3 4 3 7 7 4 4 4 5 5 5 5 5 7 8 9 10 12 14 15
6 9 7 7 7 6 4 3 4 4 4 4 3 4 3 3 5 5 4 5 7 9 4 3 4 6 5 6 6 4 10 9 11 10 8 7 8 9 10 10 11 14 16
6 8 9 8 8 8 7 6 6 6 6 5 5 5 6 4 7 5 3 1 3 7 9 4 5 4 5 6 7 10 12 19 19 14 12 12 13 12 12 13 14 14 16
7 8 11 11 11 10 8 7 7 7 5 5 6 7 7 7 5 4 3 1 4 6 5 7 6 5 4 10 6 8 13 11 18 15 15 18 19 18 18 18 18 18 19
9 11 11 13 12 10 11 9 8 8 6 6 7 6 5 7 5 6 5 8 4 7 8 7 7 6 7 11 12 10 14 11 18 24 25 25 24 22 21 22 22 22 22
12 12 15 14 12 11 11 8 7 6 7 8 7 7 7 6 7 7 5 5 6 6 8 7 9 9 6 8 11 13 15 14 18 22 24 23 25 26 26 26 26 25 26
15 16 15 12 11 12 9 11 11 9 10 9 9 9 9 9 8 8 6 7 6 5 7 9 9 9 9 9 7 8 10 18 17 17 15 19 25 28 28 29 30 29 30
16 17 15 14 13 13 12 11 10 9 10 9 9 9 9 9 6 7 7 7 6 5 6 8 8 6 8 7 11 8 7 9 17 20 25 30 27 29 30 32 33 33 31
18 16 15 15 14 14 13 11 11 11 10 9 8 9 8 6 7 8 9 8 9 7 10 8 7 9 10 8 11 8 8 7 9 13 16 19 30 27 30 33 34 32 33
18 17 15 14 13 13 10 12 11 11 10 10 9 9 9 9 8 7 5 6 9 8 9 9 9 8 9 8 9 9 10 11 8 9 9 10 11 12 16 21 23 29 32
14 12 13 13 14 11 10 10 9 10 9 10 8 9 6 6 7 4 6 5 4 8 11 10 10 10 10 9 8 8 10 12 12 10 11 11 11 12 12 21 25 24 24
13 13 16 12 12 12 11 11 10 11 6 10 9 9 10 8 4 7 7 9 11 14 19 11 10 9 10 10 10 11 11 11 13 12 12 13 12 12 12 20 23 16 23
17 13 13 13 10 10 9 10 10 7 7 11 11 11 10 9 9 6 8 9 11 13 11 9 12 12 11 9 10 11 12 13 13 12 9 13 12 14 13 13 20 19 30
15 13 12 7 11 10 12 14 13 9 9 13 11 11 8 8 9 10 6 7 8 9 11 14 6 5 11 16 15 9 10 11 12 11 12 13 11 13 13 14 15 25 23
11 9 12 8 12 12 14 13 13 7 11 12 8 9 7 12 8 9 8 8 10 11 10 10 7 9 16 15 24 13 11 9 11 13 11 12 12 13 14 13 12 13 13
Wind_Direction
89 317 335 299 313 330 29 300 332 354 325 302 347 332 334 318 330 292 311 146 143 202 234 222 217 208 195 195 197 201 203 205 199 205 216 217 215 222 217 229 241 255 258
122 278 277 294 256 42 344 337 19 316 301 263 315 358 315 318 333 305 295 177 168 186 203 213 216 212 201 206 207 211 210 210 212 212 215 222 227 224 226 231 238 246 252
253 278 275 275 306 351 254 252 246 203 262 315 328 303 303 349 325 342 293 308 177 180 192 192 204 215 215 212 211 214 219 219 220 222 226 229 226 221 227 236 239 241 247
238 246 253 244 171 284 299 287 346 310 331 330 305 320 335 320 17 261 240 337 336 309 187 181 195 210 215 222 223 219 220 222 221 225 235 237 236 230 232 237 240 242 244
237 248 269 302 6 295 273 273 301 290 328 303 311 318 357 20 334 63 29 358 48 277 356 168 184 197 214 219 225 226 228 230 230 228 231 232 237 239 237 237 238 244 245
252 242 258 326 284 268 278 226 317 331 307 268 317 317 60 43 344 58 93 90 58 12 31 9 216 199 192 218 238 234 238 239 239 240 239 236 235 237 241 241 242 245 246
225 220 255 205 244 261 169 339 312 287 310 16 292 249 150 190 134 127 62 38 56 55 38 37 356 39 141 112 62 45 0 268 258 246 253 256 246 243 241 243 244 247 247
209 195 233 288 217 304 92 355 327 313 301 80 310 291 181 173 106 308 92 80 21 38 43 57 61 19 83 93 88 69 51 40 30 13 335 357 321 273 262 254 250 246 247
239 222 251 263 124 335 309 111 222 315 299 167 126 316 303 59 197 150 172 99 47 63 24 101 52 68 11 88 176 100 62 48 42 44 34 14 360 345 331 301 267 257 249
198 195 215 209 114 316 27 192 211 292 241 310 135 141 347 359 340 132 201 131 159 125 58 325 38 136 334 354 84 74 62 46 37 11 359 356 336 321 313 310 301 287 267
217 207 189 154 196 266 128 321 225 232 231 302 283 311 137 223 144 324 331 134 359 134 144 291 18 309 262 294 306 126 146 329 353 2 347 339 333 326 312 300 294 291 291
175 192 195 172 193 243 172 223 228 225 286 335 315 31 289 313 86 341 322 323 327 260 211 241 256 295 316 288 249 135 190 262 282 300 311 316 325 329 327 319 306 298 288
197 155 196 185 190 195 191 217 186 255 213 265 219 285 72 331 345 307 310 323 358 321 263 218 271 203 266 286 282 230 198 236 245 250 259 275 293 303 310 313 309 302 296
183 151 185 193 211 195 199 185 202 226 195 211 233 260 298 214 227 249 195 139 285 291 308 182 223 225 236 237 284 250 274 240 230 233 251 269 272 275 281 292 297 294 293
184 186 187 194 195 200 200 193 228 190 242 235 250 228 255 267 257 280 263 256 236 269 285 316 312 228 265 249 234 281 282 278 215 230 243 264 263 268 271 277 280 281 279
210 171 192 202 198 194 187 189 209 210 215 245 252 256 264 284 280 253 242 249 300 293 301 302 298 316 318 305 282 254 272 260 237 241 247 249 249 259 266 269 270 271 272
185 194 198 200 187 188 194 192 229 267 204 208 239 274 266 269 267 279 302 321 306 296 308 313 329 312 336 294 282 278 271 269 275 256 243 242 243 247 253 260 264 264 265
192 197 201 191 189 177 189 180 213 222 215 229 233 233 244 243 212 233 250 248 263 292 276 303 295 294 274 273 262 262 261 278 280 276 232 229 235 244 252 257 260 258 257
198 201 193 192 189 186 192 192 199 220 237 238 233 235 237 250 268 280 303 293 288 280 273 285 302 303 300 308 294 275 259 257 269 270 260 244 242 246 252 255 254 254 252
199 196 189 188 192 193 195 202 190 217 236 237 231 244 248 268 264 257 259 261 258 253 269 272 274 268 266 267 257 278 285 268 270 278 302 301 285 255 246 251 249 248 249
204 192 184 188 197 203 195 201 201 214 224 233 241 238 239 249 304 289 284 284 307 292 294 297 291 284 263 299 317 309 302 300 285 285 290 286 292 292 290 286 272 243 241
217 204 188 197 201 219 184 170 186 224 231 233 244 254 292 276 260 254 266 279 294 294 283 274 283 286 293 300 301 285 289 292 296 293 297 292 294 288 284 276 267 268 276
214 201 203 200 206 220 164 173 178 221 231 232 225 244 244 251 220 267 231 215 227 244 241 258 272 275 297 295 300 292 291 298 289 296 301 289 286 281 278 274 277 283 286
216 209 202 203 211 217 168 164 157 216 234 245 241 239 243 258 247 235 252 241 240 246 234 235 246 262 272 298 302 292 288 279 272 266 273 288 294 279 276 285 286 297 293
211 196 214 209 209 215 178 165 172 209 229 235 239 241 232 252 245 223 230 257 257 257 264 218 232 276 264 265 259 283 283 291 293 293 284 272 290 305 301 295 294 283 298
221 207 210 200 215 224 169 179 192 209 236 237 218 242 238 249 201 195 230 257 268 275 283 283 238 248 250 249 241 237 260 272 288 286 302 314 306 301 300 291 292 289 285